Вернуться в каталог

COSMOS 1275 DEB

АктивенPO
NORAD 17632·DEBRIS·🇷🇺 Russia

Запущен Jun 4, 1981 с Plesetsk Cosmodrome

Loading…

Ближайшие Пролёты (ближайшие 24 часа)

TLE

СвежийSource: Space-Track

Эпоха: Sep 12, 2026, 23:02 UTC

1 17632U 81053LB  26255.96020416  .00000652  00000-0  75394-3 0  9998
2 17632  83.0852 143.6454 0148310 352.2614  20.0102 13.63189205 47648

Отслеживайте COSMOS 1275 DEB в реальном времени с AllMySat

Download on the App Store